Location: Borovka
(49.7741°N, 14.5280°E)
Time: 09:10:53
(UTC+00:00)

Oscar 11 - Visible Passes

Search period start: 17 March 2026 00:00
Search period end: 27 March 2026 00:00
Orbit: 590 x 602 km, 97.8° (Epoch: 17 March)

Date Brightness Start Highest point End Pass type
(mag) Time Alt. Az. Time Alt. Az. Time Alt. Az.
17 Mar 8.8 01:55:17 10° NE 01:58:52 27° E 01:58:52 27° E visible
17 Mar 7.7 03:30:47 10° N 03:34:34 34° WNW 03:35:33 30° W visible
18 Mar 8.4 02:05:03 10° NNE 02:08:52 34° E 02:09:04 33° ESE visible
18 Mar 8.0 03:40:52 10° N 03:44:27 28° WNW 03:45:44 23° W visible
19 Mar 7.9 02:14:52 10° NNE 02:18:51 42° E 02:19:15 41° ESE visible
19 Mar 8.2 03:50:58 10° N 03:54:17 23° WNW 03:55:56 18° W visible
20 Mar 7.5 02:24:42 10° NNE 02:28:49 53° E 02:29:27 48° SE visible
20 Mar 8.5 04:01:08 10° NNW 04:04:07 19° WNW 04:06:07 14° W visible
21 Mar 7.2 02:34:34 10° NNE 02:38:46 68° ESE 02:39:38 52° SSE visible
21 Mar 8.7 04:11:22 10° NNW 04:13:56 16° WNW 04:16:18 11° W visible
22 Mar 6.9 02:44:29 10° NNE 02:48:42 85° ESE 02:49:48 48° S visible
22 Mar 8.9 04:21:43 10° NNW 04:23:43 13° WNW 04:25:44 10° W visible
23 Mar 9.7 01:20:35 10° ENE 01:22:25 13° E 01:23:18 12° E visible
23 Mar 6.8 02:54:25 10° N 02:58:36 77° WNW 02:59:59 41° SSW visible
24 Mar 9.5 01:29:54 10° NE 01:32:27 16° E 01:33:29 14° ESE visible
24 Mar 7.0 03:04:21 10° N 03:08:30 61° WNW 03:10:09 33° SW visible
25 Mar 9.2 01:39:25 10° NE 01:42:28 19° E 01:43:39 17° ESE visible
25 Mar 7.2 03:14:20 10° N 03:18:22 48° WNW 03:20:20 27° SW visible
26 Mar 9.0 01:49:02 10° NE 01:52:27 24° E 01:53:49 20° ESE visible
26 Mar 7.5 03:24:20 10° N 03:28:14 39° WNW 03:30:30 21° SW visible
